User: anonymous   Login
Location: Libas
(9.8833°N, 125.9833°E)
Time: 22:07:06
(UTC+00:00)
Language:

ATLAS 3B R/B - Orbit

View from above orbital plane
View from above orbital plane
View from above satellite
View from above satellite

Ground track
Ground track

The orbit data is extracted from the following two-line orbital elements,

1 28538U 05004B   21008.70057768 0.00000000  00000-0  00000-0 0    09
2 28538  63.8401 256.1599 0112934  26.5995 333.4005 13.43139307    05
Epoch (UTC): 08 January 2021 16:48:49
Eccentricity: 0.0112934
inclination: 63.8401°
perigee height: 1013 km
apogee height: 1182 km
right ascension of ascending node: 256.1599°
argument of perigee: 26.5995°
revolutions per day: 13.43139307
mean anomaly at epoch: 333.4005°
orbit number at epoch: 0

The dashed part of the orbit path shows where the satellite is in the earth's shadow,  

DLR